Location: Baia Mare
(47.6567°N, 23.5850°E)
Time: 12:34:11
(UTC+02:00)

ISS - Pass Details

Date: 29 January 2019
Orbit: 404 x 407 km, 51.6° (Epoch: 16 January)

Event Time Altitude Azimuth Distance (km) Brightness Sun altitude
Rises 19:12:02 0° 273° (W) 2,324 1.6 -18.6°
Reaches altitude 10° 19:14:12 10° 281° (W) 1,465 0.1 -19.0°
Maximum altitude 19:17:20 41° 353° (N) 602 -3.0 -19.5°
Enters shadow 19:17:26 41° 359° (N) 603 -3.1 -19.5°
